iso_date,Year,Hour,Min,DOY,POS_DOY,Lat,Lon,BP,Ts,Ta,has_bp,has_ts,has_ta,BuoyID,Buoy_Type,Buoy_Owner,Logistics,Hemisphere
2022-10-11T19:49:09Z,2022,19,49,284.8258,284.8258,57.73662,-152.50272,-999.0,9.6,-999.0,no,yes,no,300534062120830,IT,USIABP,SIZRS,North
2022-10-11T20:00:23Z,2022,20,0,284.8336,284.8336,57.73662,-152.50312,-999.0,10.5,-999.0,no,yes,no,300534062120830,IT,USIABP,SIZRS,North
2022-10-12T23:10:19Z,2022,23,10,285.9655,285.9655,75.97527,-149.79285,-999.0,15.95,-999.0,no,yes,no,300534062120830,IT,USIABP,SIZRS,North
2022-10-13T00:00:25Z,2022,0,0,286.0003,286.0003,75.97892,-149.76414,-999.0,11.0,-999.0,no,yes,no,300534062120830,IT,USIABP,SIZRS,North
2022-10-13T01:00:28Z,2022,1,0,286.042,286.042,75.98137,-149.73115,-999.0,6.15,-999.0,no,yes,no,300534062120830,IT,USIABP,SIZRS,North
2022-10-13T02:00:57Z,2022,2,0,286.084,286.084,75.98222,-149.68879,-999.0,3.5,-999.0,no,yes,no,300534062120830,IT,USIABP,SIZRS,North
2022-10-13T03:00:25Z,2022,3,0,286.1253,286.1253,75.9792,-149.65665,-999.0,1.85,-999.0,no,yes,no,300534062120830,IT,USIABP,SIZRS,North
2022-10-13T04:00:28Z,2022,4,0,286.167,286.167,75.97657,-149.64042,-999.0,0.75,-999.0,no,yes,no,300534062120830,IT,USIABP,SIZRS,North
2022-10-13T05:00:57Z,2022,5,0,286.209,286.209,75.97318,-149.63191,-999.0,0.25,-999.0,no,yes,no,300534062120830,IT,USIABP,SIZRS,North
2022-10-13T06:00:25Z,2022,6,0,286.2503,286.2503,75.97368,-149.62759,-999.0,-0.3,-999.0,no,yes,no,300534062120830,IT,USIABP,SIZRS,North
2022-10-13T07:00:28Z,2022,7,0,286.292,286.292,75.98019,-149.62182,-999.0,-0.75,-999.0,no,yes,no,300534062120830,IT,USIABP,SIZRS,North
2022-10-13T08:00:57Z,2022,8,0,286.334,286.334,75.98999,-149.59135,-999.0,-1.1,-999.0,no,yes,no,300534062120830,IT,USIABP,SIZRS,North
2022-10-13T09:00:25Z,2022,9,0,286.3753,286.3753,75.99557,-149.54158,-999.0,-1.45,-999.0,no,yes,no,300534062120830,IT,USIABP,SIZRS,North
2022-10-13T10:00:28Z,2022,10,0,286.417,286.417,75.99794,-149.47929,-999.0,-1.85,-999.0,no,yes,no,300534062120830,IT,USIABP,SIZRS,North
2022-10-13T11:00:57Z,2022,11,0,286.459,286.459,75.99863,-149.41342,-999.0,-2.25,-999.0,no,yes,no,300534062120830,IT,USIABP,SIZRS,North
2022-10-13T12:00:25Z,2022,12,0,286.5003,286.5003,75.99716,-149.33987,-999.0,-2.5,-999.0,no,yes,no,300534062120830,IT,USIABP,SIZRS,North
2022-10-13T13:00:54Z,2022,13,0,286.5423,286.5423,75.98983,-149.27612,-999.0,-2.7,-999.0,no,yes,no,300534062120830,IT,USIABP,SIZRS,North
2022-10-13T14:00:23Z,2022,14,0,286.5836,286.5836,75.97959,-149.23784,-999.0,-3.05,-999.0,no,yes,no,300534062120830,IT,USIABP,SIZRS,North
2022-10-13T15:00:25Z,2022,15,0,286.6253,286.6253,75.96792,-149.20807,-999.0,-3.35,-999.0,no,yes,no,300534062120830,IT,USIABP,SIZRS,North
2022-10-13T16:00:54Z,2022,16,0,286.6673,286.6673,75.95677,-149.18844,-999.0,-3.45,-999.0,no,yes,no,300534062120830,IT,USIABP,SIZRS,North
2022-10-13T17:00:31Z,2022,17,0,286.7087,286.7087,75.9486,-149.18266,-999.0,-3.65,-999.0,no,yes,no,300534062120830,IT,USIABP,SIZRS,North
2022-10-13T18:00:25Z,2022,18,0,286.7503,286.7503,75.94505,-149.18312,-999.0,-3.9,-999.0,no,yes,no,300534062120830,IT,USIABP,SIZRS,North
2022-10-13T19:00:54Z,2022,19,0,286.7923,286.7923,75.94675,-149.18319,-999.0,-4.15,-999.0,no,yes,no,300534062120830,IT,USIABP,SIZRS,North
2022-10-13T20:00:23Z,2022,20,0,286.8336,286.8336,75.95104,-149.16819,-999.0,-4.15,-999.0,no,yes,no,300534062120830,IT,USIABP,SIZRS,North
2022-10-13T21:00:25Z,2022,21,0,286.8753,286.8753,75.95502,-149.12871,-999.0,-4.15,-999.0,no,yes,no,300534062120830,IT,USIABP,SIZRS,North
2022-10-13T22:00:54Z,2022,22,0,286.9173,286.9173,75.9583,-149.06348,-999.0,-4.15,-999.0,no,yes,no,300534062120830,IT,USIABP,SIZRS,North
2022-10-13T23:00:23Z,2022,23,0,286.9586,286.9586,75.95866,-148.9862,-999.0,-4.35,-999.0,no,yes,no,300534062120830,IT,USIABP,SIZRS,North
2022-10-14T00:00:25Z,2022,0,0,287.0003,287.0003,75.95432,-148.9039,-999.0,-4.55,-999.0,no,yes,no,300534062120830,IT,USIABP,SIZRS,North
2022-10-14T01:00:28Z,2022,1,0,287.042,287.042,75.94629,-148.82304,-999.0,-4.65,-999.0,no,yes,no,300534062120830,IT,USIABP,SIZRS,North
2022-10-14T02:00:57Z,2022,2,0,287.084,287.084,75.93546,-148.75067,-999.0,-4.9,-999.0,no,yes,no,300534062120830,IT,USIABP,SIZRS,North
2022-10-14T03:00:25Z,2022,3,0,287.1253,287.1253,75.92393,-148.69645,-999.0,-5.05,-999.0,no,yes,no,300534062120830,IT,USIABP,SIZRS,North
2022-10-14T04:00:28Z,2022,4,0,287.167,287.167,75.91301,-148.65557,-999.0,-5.2,-999.0,no,yes,no,300534062120830,IT,USIABP,SIZRS,North
2022-10-14T05:00:57Z,2022,5,0,287.209,287.209,75.90311,-148.62231,-999.0,-5.15,-999.0,no,yes,no,300534062120830,IT,USIABP,SIZRS,North
2022-10-14T06:00:25Z,2022,6,0,287.2503,287.2503,75.89492,-148.59113,-999.0,-5.1,-999.0,no,yes,no,300534062120830,IT,USIABP,SIZRS,North
2022-10-14T07:00:28Z,2022,7,0,287.292,287.292,75.88847,-148.56043,-999.0,-5.05,-999.0,no,yes,no,300534062120830,IT,USIABP,SIZRS,North
2022-10-14T08:00:57Z,2022,8,0,287.334,287.334,75.88556,-148.52102,-999.0,-5.05,-999.0,no,yes,no,300534062120830,IT,USIABP,SIZRS,North
2022-10-14T09:00:25Z,2022,9,0,287.3753,287.3753,75.8856,-148.47212,-999.0,-5.0,-999.0,no,yes,no,300534062120830,IT,USIABP,SIZRS,North
2022-10-14T10:00:28Z,2022,10,0,287.417,287.417,75.8867,-148.4102,-999.0,-4.9,-999.0,no,yes,no,300534062120830,IT,USIABP,SIZRS,North
2022-10-14T11:00:57Z,2022,11,0,287.459,287.459,75.88491,-148.34085,-999.0,-4.8,-999.0,no,yes,no,300534062120830,IT,USIABP,SIZRS,North
2022-10-14T12:00:25Z,2022,12,0,287.5003,287.5003,75.87839,-148.28261,-999.0,-4.75,-999.0,no,yes,no,300534062120830,IT,USIABP,SIZRS,North
2022-10-14T13:00:28Z,2022,13,0,287.542,287.542,75.87013,-148.22868,-999.0,-4.75,-999.0,no,yes,no,300534062120830,IT,USIABP,SIZRS,North
2022-10-14T14:00:57Z,2022,14,0,287.584,287.584,75.85998,-148.17981,-999.0,-4.85,-999.0,no,yes,no,300534062120830,IT,USIABP,SIZRS,North
2022-10-14T15:00:25Z,2022,15,0,287.6253,287.6253,75.85021,-148.14356,-999.0,-4.9,-999.0,no,yes,no,300534062120830,IT,USIABP,SIZRS,North
2022-10-14T16:00:28Z,2022,16,0,287.667,287.667,75.84122,-148.11886,-999.0,-5.1,-999.0,no,yes,no,300534062120830,IT,USIABP,SIZRS,North
2022-10-14T17:00:23Z,2022,17,0,287.7086,287.7086,75.83366,-148.10298,-999.0,-5.35,-999.0,no,yes,no,300534062120830,IT,USIABP,SIZRS,North
2022-10-14T18:00:51Z,2022,18,0,287.7506,287.7506,75.82769,-148.094,-999.0,-5.4,-999.0,no,yes,no,300534062120830,IT,USIABP,SIZRS,North
2022-10-14T19:00:28Z,2022,19,0,287.792,287.792,75.82397,-148.0841,-999.0,-5.5,-999.0,no,yes,no,300534062120830,IT,USIABP,SIZRS,North
2022-10-14T20:00:23Z,2022,20,0,287.8336,287.8336,75.82237,-148.06963,-999.0,-5.75,-999.0,no,yes,no,300534062120830,IT,USIABP,SIZRS,North
2022-10-14T21:00:25Z,2022,21,0,287.8753,287.8753,75.82211,-148.04438,-999.0,-5.8,-999.0,no,yes,no,300534062120830,IT,USIABP,SIZRS,North
2022-10-14T22:00:54Z,2022,22,0,287.9173,287.9173,75.81919,-148.0111,-999.0,-5.75,-999.0,no,yes,no,300534062120830,IT,USIABP,SIZRS,North
2022-10-14T23:00:23Z,2022,23,0,287.9586,287.9586,75.81427,-147.97634,-999.0,-5.8,-999.0,no,yes,no,300534062120830,IT,USIABP,SIZRS,North
2022-10-15T00:00:25Z,2022,0,0,288.0003,288.0003,75.80739,-147.93893,-999.0,-5.9,-999.0,no,yes,no,300534062120830,IT,USIABP,SIZRS,North
2022-10-15T01:00:28Z,2022,1,0,288.042,288.042,75.79882,-147.90428,-999.0,-5.95,-999.0,no,yes,no,300534062120830,IT,USIABP,SIZRS,North
2022-10-15T02:00:57Z,2022,2,0,288.084,288.084,75.78977,-147.87629,-999.0,-6.2,-999.0,no,yes,no,300534062120830,IT,USIABP,SIZRS,North
2022-10-15T03:00:25Z,2022,3,0,288.1253,288.1253,75.78111,-147.85827,-999.0,-6.4,-999.0,no,yes,no,300534062120830,IT,USIABP,SIZRS,North
2022-10-15T04:00:28Z,2022,4,0,288.167,288.167,75.77444,-147.84866,-999.0,-6.35,-999.0,no,yes,no,300534062120830,IT,USIABP,SIZRS,North
2022-10-15T05:00:57Z,2022,5,0,288.209,288.209,75.77035,-147.84243,-999.0,-6.2,-999.0,no,yes,no,300534062120830,IT,USIABP,SIZRS,North
2022-10-15T06:00:25Z,2022,6,0,288.2503,288.2503,75.76882,-147.83763,-999.0,-6.05,-999.0,no,yes,no,300534062120830,IT,USIABP,SIZRS,North
2022-10-15T07:00:28Z,2022,7,0,288.292,288.292,75.76915,-147.82884,-999.0,-5.9,-999.0,no,yes,no,300534062120830,IT,USIABP,SIZRS,North
2022-10-15T08:00:57Z,2022,8,0,288.334,288.334,75.77072,-147.81461,-999.0,-5.8,-999.0,no,yes,no,300534062120830,IT,USIABP,SIZRS,North
2022-10-15T09:00:25Z,2022,9,0,288.3753,288.3753,75.77248,-147.79556,-999.0,-5.95,-999.0,no,yes,no,300534062120830,IT,USIABP,SIZRS,North
2022-10-15T10:00:28Z,2022,10,0,288.417,288.417,75.77324,-147.77242,-999.0,-6.65,-999.0,no,yes,no,300534062120830,IT,USIABP,SIZRS,North
2022-10-15T11:00:57Z,2022,11,0,288.459,288.459,75.77238,-147.74346,-999.0,-7.1,-999.0,no,yes,no,300534062120830,IT,USIABP,SIZRS,North
2022-10-15T12:00:25Z,2022,12,0,288.5003,288.5003,75.76974,-147.71222,-999.0,-7.3,-999.0,no,yes,no,300534062120830,IT,USIABP,SIZRS,North
2022-10-15T13:00:28Z,2022,13,0,288.542,288.542,75.76522,-147.6826,-999.0,-7.3,-999.0,no,yes,no,300534062120830,IT,USIABP,SIZRS,North
2022-10-15T14:00:57Z,2022,14,0,288.584,288.584,75.75912,-147.65701,-999.0,-7.4,-999.0,no,yes,no,300534062120830,IT,USIABP,SIZRS,North
2022-10-15T15:00:25Z,2022,15,0,288.6253,288.6253,75.75288,-147.63858,-999.0,-7.4,-999.0,no,yes,no,300534062120830,IT,USIABP,SIZRS,North
2022-10-15T16:00:28Z,2022,16,0,288.667,288.667,75.74805,-147.62832,-999.0,-7.4,-999.0,no,yes,no,300534062120830,IT,USIABP,SIZRS,North
2022-10-15T17:00:23Z,2022,17,0,288.7086,288.7086,75.74497,-147.62546,-999.0,-7.6,-999.0,no,yes,no,300534062120830,IT,USIABP,SIZRS,North
2022-10-15T18:00:51Z,2022,18,0,288.7506,288.7506,75.74372,-147.62658,-999.0,-8.0,-999.0,no,yes,no,300534062120830,IT,USIABP,SIZRS,North
2022-10-15T19:00:28Z,2022,19,0,288.792,288.792,75.74423,-147.62741,-999.0,-7.95,-999.0,no,yes,no,300534062120830,IT,USIABP,SIZRS,North
2022-10-15T20:00:23Z,2022,20,0,288.8336,288.8336,75.74596,-147.62683,-999.0,-7.8,-999.0,no,yes,no,300534062120830,IT,USIABP,SIZRS,North
2022-10-15T21:00:25Z,2022,21,0,288.8753,288.8753,75.74884,-147.62235,-999.0,-7.7,-999.0,no,yes,no,300534062120830,IT,USIABP,SIZRS,North
2022-10-15T22:00:54Z,2022,22,0,288.9173,288.9173,75.75166,-147.61259,-999.0,-7.5,-999.0,no,yes,no,300534062120830,IT,USIABP,SIZRS,North
2022-10-15T23:00:23Z,2022,23,0,288.9586,288.9586,75.75399,-147.60021,-999.0,-7.25,-999.0,no,yes,no,300534062120830,IT,USIABP,SIZRS,North
2022-10-16T00:00:25Z,2022,0,0,289.0003,289.0003,75.7558,-147.58786,-999.0,-7.0,-999.0,no,yes,no,300534062120830,IT,USIABP,SIZRS,North
2022-10-16T01:00:28Z,2022,1,0,289.042,289.042,75.75713,-147.57902,-999.0,-6.75,-999.0,no,yes,no,300534062120830,IT,USIABP,SIZRS,North
2022-10-16T02:00:57Z,2022,2,0,289.084,289.084,75.75799,-147.57717,-999.0,-6.6,-999.0,no,yes,no,300534062120830,IT,USIABP,SIZRS,North
2022-10-16T03:00:25Z,2022,3,0,289.1253,289.1253,75.75918,-147.58411,-999.0,-6.6,-999.0,no,yes,no,300534062120830,IT,USIABP,SIZRS,North
2022-10-16T04:00:28Z,2022,4,0,289.167,289.167,75.76204,-147.59739,-999.0,-6.55,-999.0,no,yes,no,300534062120830,IT,USIABP,SIZRS,North
2022-10-16T05:00:57Z,2022,5,0,289.209,289.209,75.76618,-147.61042,-999.0,-6.1,-999.0,no,yes,no,300534062120830,IT,USIABP,SIZRS,North
2022-10-16T06:00:25Z,2022,6,0,289.2503,289.2503,75.77127,-147.61829,-999.0,-5.8,-999.0,no,yes,no,300534062120830,IT,USIABP,SIZRS,North
2022-10-16T07:00:28Z,2022,7,0,289.292,289.292,75.7778,-147.62238,-999.0,-5.5,-999.0,no,yes,no,300534062120830,IT,USIABP,SIZRS,North
2022-10-16T08:00:57Z,2022,8,0,289.334,289.334,75.78478,-147.61973,-999.0,-5.2,-999.0,no,yes,no,300534062120830,IT,USIABP,SIZRS,North
2022-10-16T09:00:25Z,2022,9,0,289.3753,289.3753,75.79089,-147.61013,-999.0,-5.05,-999.0,no,yes,no,300534062120830,IT,USIABP,SIZRS,North
2022-10-16T10:00:28Z,2022,10,0,289.417,289.417,75.79593,-147.59536,-999.0,-5.0,-999.0,no,yes,no,300534062120830,IT,USIABP,SIZRS,North
2022-10-16T11:00:57Z,2022,11,0,289.459,289.459,75.79994,-147.5778,-999.0,-4.95,-999.0,no,yes,no,300534062120830,IT,USIABP,SIZRS,North
2022-10-16T12:00:25Z,2022,12,0,289.5003,289.5003,75.80294,-147.55874,-999.0,-4.8,-999.0,no,yes,no,300534062120830,IT,USIABP,SIZRS,North
2022-10-16T13:00:28Z,2022,13,0,289.542,289.542,75.80468,-147.53914,-999.0,-4.8,-999.0,no,yes,no,300534062120830,IT,USIABP,SIZRS,North
2022-10-16T14:00:57Z,2022,14,0,289.584,289.584,75.80517,-147.52233,-999.0,-4.75,-999.0,no,yes,no,300534062120830,IT,USIABP,SIZRS,North
2022-10-16T15:00:25Z,2022,15,0,289.6253,289.6253,75.80562,-147.50933,-999.0,-4.6,-999.0,no,yes,no,300534062120830,IT,USIABP,SIZRS,North
2022-10-16T16:00:28Z,2022,16,0,289.667,289.667,75.80701,-147.49928,-999.0,-4.5,-999.0,no,yes,no,300534062120830,IT,USIABP,SIZRS,North
2022-10-16T17:00:23Z,2022,17,0,289.7086,289.7086,75.81016,-147.49009,-999.0,-4.4,-999.0,no,yes,no,300534062120830,IT,USIABP,SIZRS,North
2022-10-16T18:00:51Z,2022,18,0,289.7506,289.7506,75.81444,-147.48298,-999.0,-4.25,-999.0,no,yes,no,300534062120830,IT,USIABP,SIZRS,North
2022-10-16T19:00:28Z,2022,19,0,289.792,289.792,75.81896,-147.47856,-999.0,-4.45,-999.0,no,yes,no,300534062120830,IT,USIABP,SIZRS,North
2022-10-16T20:00:23Z,2022,20,0,289.8336,289.8336,75.82453,-147.47532,-999.0,-4.7,-999.0,no,yes,no,300534062120830,IT,USIABP,SIZRS,North
2022-10-16T21:00:25Z,2022,21,0,289.8753,289.8753,75.83092,-147.47054,-999.0,-4.9,-999.0,no,yes,no,300534062120830,IT,USIABP,SIZRS,North
2022-10-16T22:00:54Z,2022,22,0,289.9173,289.9173,75.83615,-147.46352,-999.0,-5.1,-999.0,no,yes,no,300534062120830,IT,USIABP,SIZRS,North
2022-10-16T23:00:23Z,2022,23,0,289.9586,289.9586,75.84002,-147.45645,-999.0,-5.25,-999.0,no,yes,no,300534062120830,IT,USIABP,SIZRS,North
2022-10-17T00:00:25Z,2022,0,0,290.0003,290.0003,75.84277,-147.45085,-999.0,-5.6,-999.0,no,yes,no,300534062120830,IT,USIABP,SIZRS,North
2022-10-17T01:00:28Z,2022,1,0,290.042,290.042,75.84506,-147.44902,-999.0,-6.1,-999.0,no,yes,no,300534062120830,IT,USIABP,SIZRS,North
2022-10-17T02:00:57Z,2022,2,0,290.084,290.084,75.84687,-147.45063,-999.0,-6.45,-999.0,no,yes,no,300534062120830,IT,USIABP,SIZRS,North
2022-10-17T03:00:25Z,2022,3,0,290.1253,290.1253,75.84814,-147.45702,-999.0,-6.75,-999.0,no,yes,no,300534062120830,IT,USIABP,SIZRS,North
2022-10-17T04:00:28Z,2022,4,0,290.167,290.167,75.84933,-147.46948,-999.0,-7.25,-999.0,no,yes,no,300534062120830,IT,USIABP,SIZRS,North
2022-10-17T05:00:57Z,2022,5,0,290.209,290.209,75.8515,-147.48602,-999.0,-7.65,-999.0,no,yes,no,300534062120830,IT,USIABP,SIZRS,North
2022-10-17T06:00:25Z,2022,6,0,290.2503,290.2503,75.85527,-147.50341,-999.0,-7.95,-999.0,no,yes,no,300534062120830,IT,USIABP,SIZRS,North
2022-10-17T07:00:28Z,2022,7,0,290.292,290.292,75.86074,-147.51892,-999.0,-8.2,-999.0,no,yes,no,300534062120830,IT,USIABP,SIZRS,North
2022-10-17T08:00:57Z,2022,8,0,290.334,290.334,75.86663,-147.53047,-999.0,-8.4,-999.0,no,yes,no,300534062120830,IT,USIABP,SIZRS,North
2022-10-17T09:00:25Z,2022,9,0,290.3753,290.3753,75.87195,-147.53779,-999.0,-8.6,-999.0,no,yes,no,300534062120830,IT,USIABP,SIZRS,North
2022-10-17T10:00:28Z,2022,10,0,290.417,290.417,75.87654,-147.54422,-999.0,-8.9,-999.0,no,yes,no,300534062120830,IT,USIABP,SIZRS,North
2022-10-17T11:00:23Z,2022,11,0,290.4586,290.4586,75.88059,-147.55179,-999.0,-9.1,-999.0,no,yes,no,300534062120830,IT,USIABP,SIZRS,North
2022-10-17T12:00:51Z,2022,12,0,290.5006,290.5006,75.88348,-147.56017,-999.0,-9.4,-999.0,no,yes,no,300534062120830,IT,USIABP,SIZRS,North
2022-10-17T13:00:28Z,2022,13,0,290.542,290.542,75.88525,-147.57334,-999.0,-9.75,-999.0,no,yes,no,300534062120830,IT,USIABP,SIZRS,North
2022-10-17T14:00:23Z,2022,14,0,290.5836,290.5836,75.88609,-147.59251,-999.0,-9.95,-999.0,no,yes,no,300534062120830,IT,USIABP,SIZRS,North
2022-10-17T15:00:51Z,2022,15,0,290.6256,290.6256,75.88646,-147.61626,-999.0,-10.05,-999.0,no,yes,no,300534062120830,IT,USIABP,SIZRS,North
2022-10-17T16:00:28Z,2022,16,0,290.667,290.667,75.88668,-147.64424,-999.0,-10.1,-999.0,no,yes,no,300534062120830,IT,USIABP,SIZRS,North
2022-10-17T17:00:23Z,2022,17,0,290.7086,290.7086,75.88712,-147.67693,-999.0,-10.3,-999.0,no,yes,no,300534062120830,IT,USIABP,SIZRS,North
2022-10-17T18:00:51Z,2022,18,0,290.7506,290.7506,75.88779,-147.7136,-999.0,-10.45,-999.0,no,yes,no,300534062120830,IT,USIABP,SIZRS,North
2022-10-17T19:00:28Z,2022,19,0,290.792,290.792,75.889,-147.75104,-999.0,-10.5,-999.0,no,yes,no,300534062120830,IT,USIABP,SIZRS,North
2022-10-17T20:00:23Z,2022,20,0,290.8336,290.8336,75.89069,-147.78703,-999.0,-10.45,-999.0,no,yes,no,300534062120830,IT,USIABP,SIZRS,North
2022-10-17T21:00:25Z,2022,21,0,290.8753,290.8753,75.89273,-147.82074,-999.0,-10.5,-999.0,no,yes,no,300534062120830,IT,USIABP,SIZRS,North
2022-10-17T22:00:54Z,2022,22,0,290.9173,290.9173,75.89449,-147.85409,-999.0,-10.45,-999.0,no,yes,no,300534062120830,IT,USIABP,SIZRS,North
2022-10-17T23:00:23Z,2022,23,0,290.9586,290.9586,75.89545,-147.88622,-999.0,-10.05,-999.0,no,yes,no,300534062120830,IT,USIABP,SIZRS,North
2022-10-18T00:00:25Z,2022,0,0,291.0003,291.0003,75.89567,-147.91878,-999.0,-9.95,-999.0,no,yes,no,300534062120830,IT,USIABP,SIZRS,North
2022-10-18T01:00:28Z,2022,1,0,291.042,291.042,75.89467,-147.94977,-999.0,-9.9,-999.0,no,yes,no,300534062120830,IT,USIABP,SIZRS,North
2022-10-18T02:00:57Z,2022,2,0,291.084,291.084,75.89259,-147.98102,-999.0,-9.9,-999.0,no,yes,no,300534062120830,IT,USIABP,SIZRS,North
2022-10-18T03:00:25Z,2022,3,0,291.1253,291.1253,75.88975,-148.01525,-999.0,-10.05,-999.0,no,yes,no,300534062120830,IT,USIABP,SIZRS,North
2022-10-18T04:00:28Z,2022,4,0,291.167,291.167,75.88659,-148.05416,-999.0,-10.0,-999.0,no,yes,no,300534062120830,IT,USIABP,SIZRS,North
2022-10-18T05:00:57Z,2022,5,0,291.209,291.209,75.88392,-148.09491,-999.0,-9.85,-999.0,no,yes,no,300534062120830,IT,USIABP,SIZRS,North
2022-10-18T06:00:25Z,2022,6,0,291.2503,291.2503,75.88213,-148.13634,-999.0,-9.9,-999.0,no,yes,no,300534062120830,IT,USIABP,SIZRS,North
2022-10-18T07:00:28Z,2022,7,0,291.292,291.292,75.88114,-148.17872,-999.0,-9.95,-999.0,no,yes,no,300534062120830,IT,USIABP,SIZRS,North
2022-10-18T08:00:57Z,2022,8,0,291.334,291.334,75.88076,-148.2181,-999.0,-10.1,-999.0,no,yes,no,300534062120830,IT,USIABP,SIZRS,North
2022-10-18T09:00:25Z,2022,9,0,291.3753,291.3753,75.88048,-148.25415,-999.0,-10.15,-999.0,no,yes,no,300534062120830,IT,USIABP,SIZRS,North
2022-10-18T10:00:28Z,2022,10,0,291.417,291.417,75.87989,-148.28947,-999.0,-10.15,-999.0,no,yes,no,300534062120830,IT,USIABP,SIZRS,North
2022-10-18T11:00:23Z,2022,11,0,291.4586,291.4586,75.87873,-148.32159,-999.0,-10.15,-999.0,no,yes,no,300534062120830,IT,USIABP,SIZRS,North
2022-10-18T12:00:51Z,2022,12,0,291.5006,291.5006,75.87664,-148.35075,-999.0,-10.15,-999.0,no,yes,no,300534062120830,IT,USIABP,SIZRS,North
2022-10-18T13:00:28Z,2022,13,0,291.542,291.542,75.87394,-148.37684,-999.0,-10.3,-999.0,no,yes,no,300534062120830,IT,USIABP,SIZRS,North
2022-10-18T14:00:23Z,2022,14,0,291.5836,291.5836,75.87058,-148.40243,-999.0,-10.4,-999.0,no,yes,no,300534062120830,IT,USIABP,SIZRS,North
2022-10-18T15:00:51Z,2022,15,0,291.6256,291.6256,75.86678,-148.42824,-999.0,-10.45,-999.0,no,yes,no,300534062120830,IT,USIABP,SIZRS,North
2022-10-18T16:00:28Z,2022,16,0,291.667,291.667,75.863,-148.45468,-999.0,-10.45,-999.0,no,yes,no,300534062120830,IT,USIABP,SIZRS,North
2022-10-18T17:00:23Z,2022,17,0,291.7086,291.7086,75.85973,-148.48141,-999.0,-10.5,-999.0,no,yes,no,300534062120830,IT,USIABP,SIZRS,North
2022-10-18T18:00:51Z,2022,18,0,291.7506,291.7506,75.85696,-148.50898,-999.0,-10.55,-999.0,no,yes,no,300534062120830,IT,USIABP,SIZRS,North
2022-10-18T19:00:28Z,2022,19,0,291.792,291.792,75.85511,-148.53546,-999.0,-10.6,-999.0,no,yes,no,300534062120830,IT,USIABP,SIZRS,North
2022-10-18T20:00:23Z,2022,20,0,291.8336,291.8336,75.85421,-148.56019,-999.0,-10.65,-999.0,no,yes,no,300534062120830,IT,USIABP,SIZRS,North
2022-10-18T21:00:25Z,2022,21,0,291.8753,291.8753,75.85408,-148.58427,-999.0,-10.6,-999.0,no,yes,no,300534062120830,IT,USIABP,SIZRS,North
2022-10-18T22:00:54Z,2022,22,0,291.9173,291.9173,75.85419,-148.60544,-999.0,-10.45,-999.0,no,yes,no,300534062120830,IT,USIABP,SIZRS,North
2022-10-18T23:00:23Z,2022,23,0,291.9586,291.9586,75.85382,-148.62498,-999.0,-10.35,-999.0,no,yes,no,300534062120830,IT,USIABP,SIZRS,North
2022-10-19T00:00:25Z,2022,0,0,292.0003,292.0003,75.85309,-148.6437,-999.0,-10.05,-999.0,no,yes,no,300534062120830,IT,USIABP,SIZRS,North
2022-10-19T01:00:28Z,2022,1,0,292.042,292.042,75.85199,-148.66144,-999.0,-9.75,-999.0,no,yes,no,300534062120830,IT,USIABP,SIZRS,North
2022-10-19T02:00:57Z,2022,2,0,292.084,292.084,75.85062,-148.67972,-999.0,-9.4,-999.0,no,yes,no,300534062120830,IT,USIABP,SIZRS,North
2022-10-19T03:00:25Z,2022,3,0,292.1253,292.1253,75.84937,-148.69933,-999.0,-9.15,-999.0,no,yes,no,300534062120830,IT,USIABP,SIZRS,North
2022-10-19T04:00:28Z,2022,4,0,292.167,292.167,75.84857,-148.72138,-999.0,-8.95,-999.0,no,yes,no,300534062120830,IT,USIABP,SIZRS,North
2022-10-19T05:00:57Z,2022,5,0,292.209,292.209,75.84849,-148.74599,-999.0,-8.65,-999.0,no,yes,no,300534062120830,IT,USIABP,SIZRS,North
2022-10-19T06:00:25Z,2022,6,0,292.2503,292.2503,75.84951,-148.77045,-999.0,-8.45,-999.0,no,yes,no,300534062120830,IT,USIABP,SIZRS,North
2022-10-19T07:00:28Z,2022,7,0,292.292,292.292,75.8515,-148.79382,-999.0,-8.2,-999.0,no,yes,no,300534062120830,IT,USIABP,SIZRS,North
2022-10-19T08:00:57Z,2022,8,0,292.334,292.334,75.85413,-148.81481,-999.0,-8.0,-999.0,no,yes,no,300534062120830,IT,USIABP,SIZRS,North
2022-10-19T09:00:25Z,2022,9,0,292.3753,292.3753,75.85685,-148.83308,-999.0,-7.8,-999.0,no,yes,no,300534062120830,IT,USIABP,SIZRS,North
2022-10-19T10:00:28Z,2022,10,0,292.417,292.417,75.85961,-148.85018,-999.0,-7.65,-999.0,no,yes,no,300534062120830,IT,USIABP,SIZRS,North
2022-10-19T11:00:23Z,2022,11,0,292.4586,292.4586,75.86229,-148.86656,-999.0,-7.45,-999.0,no,yes,no,300534062120830,IT,USIABP,SIZRS,North
2022-10-19T12:00:51Z,2022,12,0,292.5006,292.5006,75.86482,-148.88193,-999.0,-7.2,-999.0,no,yes,no,300534062120830,IT,USIABP,SIZRS,North
2022-10-19T13:00:28Z,2022,13,0,292.542,292.542,75.86717,-148.89539,-999.0,-7.05,-999.0,no,yes,no,300534062120830,IT,USIABP,SIZRS,North
2022-10-19T14:00:23Z,2022,14,0,292.5836,292.5836,75.86904,-148.90834,-999.0,-6.85,-999.0,no,yes,no,300534062120830,IT,USIABP,SIZRS,North
2022-10-19T15:00:25Z,2022,15,0,292.6253,292.6253,75.87076,-148.92299,-999.0,-6.65,-999.0,no,yes,no,300534062120830,IT,USIABP,SIZRS,North
2022-10-19T16:00:54Z,2022,16,0,292.6673,292.6673,75.87274,-148.94005,-999.0,-6.4,-999.0,no,yes,no,300534062120830,IT,USIABP,SIZRS,North
2022-10-19T17:00:23Z,2022,17,0,292.7086,292.7086,75.87504,-148.95858,-999.0,-6.25,-999.0,no,yes,no,300534062120830,IT,USIABP,SIZRS,North
2022-10-19T18:00:25Z,2022,18,0,292.7503,292.7503,75.87783,-148.97891,-999.0,-6.15,-999.0,no,yes,no,300534062120830,IT,USIABP,SIZRS,North
2022-10-19T19:00:54Z,2022,19,0,292.7923,292.7923,75.88149,-149.00038,-999.0,-6.0,-999.0,no,yes,no,300534062120830,IT,USIABP,SIZRS,North
2022-10-19T20:00:23Z,2022,20,0,292.8336,292.8336,75.88581,-149.02001,-999.0,-5.9,-999.0,no,yes,no,300534062120830,IT,USIABP,SIZRS,North
2022-10-19T21:00:25Z,2022,21,0,292.8753,292.8753,75.89054,-149.03765,-999.0,-5.75,-999.0,no,yes,no,300534062120830,IT,USIABP,SIZRS,North
2022-10-19T22:00:54Z,2022,22,0,292.9173,292.9173,75.89526,-149.05389,-999.0,-5.65,-999.0,no,yes,no,300534062120830,IT,USIABP,SIZRS,North
2022-10-19T23:00:23Z,2022,23,0,292.9586,292.9586,75.89973,-149.06825,-999.0,-5.55,-999.0,no,yes,no,300534062120830,IT,USIABP,SIZRS,North
2022-10-20T00:00:25Z,2022,0,0,293.0003,293.0003,75.90399,-149.08209,-999.0,-5.5,-999.0,no,yes,no,300534062120830,IT,USIABP,SIZRS,North
2022-10-20T01:00:28Z,2022,1,0,293.042,293.042,75.90787,-149.09639,-999.0,-5.45,-999.0,no,yes,no,300534062120830,IT,USIABP,SIZRS,North
2022-10-20T02:00:57Z,2022,2,0,293.084,293.084,75.91158,-149.11114,-999.0,-5.5,-999.0,no,yes,no,300534062120830,IT,USIABP,SIZRS,North
2022-10-20T03:00:25Z,2022,3,0,293.1253,293.1253,75.91511,-149.12714,-999.0,-5.55,-999.0,no,yes,no,300534062120830,IT,USIABP,SIZRS,North
2022-10-20T04:00:28Z,2022,4,0,293.167,293.167,75.9189,-149.14583,-999.0,-5.55,-999.0,no,yes,no,300534062120830,IT,USIABP,SIZRS,North